Total_Precipitation_Accumulation
0.00 0.00 0.00 0.00 0.00 0.00 0.00 0.00 0.00 0.00 0.00 0.00 0.00 0.00 0.00 0.00 0.00 0.00 0.00 0.00 0.00 0.00 0.00 0.00 0.00 0.00 0.00 0.00 0.00 0.01 0.01 0.01 0.02 0.03 0.06 0.11 0.24 0.44
0.00 0.00 0.00 0.00 0.00 0.00 0.00 0.00 0.00 0.00 0.00 0.00 0.00 0.00 0.00 0.00 0.00 0.00 0.00 0.00 0.00 0.00 0.00 0.00 0.01 0.01 0.02 0.01 0.01 0.01 0.01 0.01 0.02 0.02 0.04 0.07 0.10 0.15
0.00 0.00 0.00 0.00 0.00 0.00 0.00 0.00 0.00 0.00 0.00 0.00 0.00 0.00 0.00 0.00 0.00 0.00 0.00 0.00 0.00 0.00 0.00 0.01 0.01 0.01 0.01 0.01 0.01 0.01 0.01 0.02 0.03 0.04 0.05 0.08 0.12 0.14
0.00 0.00 0.00 0.00 0.00 0.00 0.00 0.00 0.00 0.00 0.01 0.01 0.00 0.00 0.00 0.00 0.00 0.00 0.00 0.00 0.00 0.01 0.01 0.00 0.00 0.00 0.00 0.00 0.00 0.00 0.01 0.01 0.02 0.02 0.02 0.03 0.05 0.08
0.00 0.00 0.00 0.00 0.00 0.00 0.00 0.00 0.00 0.01 0.02 0.03 0.01 0.00 0.00 0.00 0.00 0.00 0.00 0.00 0.00 0.00 0.00 0.00 0.00 0.00 0.00 0.00 0.01 0.03 0.04 0.03 0.04 0.05 0.05 0.05 0.05 0.05
0.00 0.00 0.00 0.00 0.00 0.00 0.00 0.00 0.01 0.01 0.01 0.01 0.06 0.06 0.02 0.02 0.03 0.02 0.00 0.00 0.00 0.00 0.00 0.00 0.00 0.00 0.01 0.02 0.03 0.03 0.02 0.02 0.02 0.03 0.03 0.04 0.05 0.05
0.00 0.00 0.00 0.00 0.00 0.00 0.01 0.01 0.02 0.02 0.09 0.15 0.10 0.10 0.10 0.05 0.01 0.00 0.01 0.00 0.00 0.00 0.00 0.00 0.01 0.02 0.01 0.01 0.00 0.00 0.00 0.01 0.03 0.05 0.07 0.07 0.07 0.06
0.00 0.00 0.00 0.00 0.00 0.00 0.00 0.01 0.03 0.07 0.08 0.20 0.28 0.15 0.03 0.00 0.00 0.01 0.04 0.08 0.06 0.01 0.01 0.01 0.00 0.00 0.00 0.00 0.00 0.02 0.03 0.04 0.05 0.07 0.08 0.08 0.07 0.06
0.00 0.00 0.00 0.00 0.00 0.00 0.00 0.03 0.04 0.15 0.20 0.13 0.05 0.01 0.01 0.01 0.09 0.15 0.10 0.08 0.04 0.01 0.02 0.01 0.00 0.01 0.00 0.01 0.01 0.01 0.02 0.03 0.03 0.03 0.03 0.03 0.03 0.03
0.00 0.00 0.00 0.00 0.01 0.02 0.02 0.05 0.13 0.11 0.02 0.00 0.01 0.01 0.03 0.05 0.07 0.05 0.03 0.04 0.02 0.01 0.02 0.06 0.02 0.02 0.01 0.01 0.01 0.01 0.01 0.02 0.05 0.07 0.08 0.07 0.05 0.04
0.00 0.00 0.01 0.01 0.01 0.03 0.09 0.19 0.05 0.00 0.00 0.00 0.04 0.03 0.01 0.00 0.01 0.05 0.12 0.11 0.07 0.01 0.01 0.06 0.04 0.02 0.01 0.00 0.00 0.01 0.08 0.11 0.10 0.08 0.09 0.10 0.09 0.07
0.00 0.00 0.01 0.01 0.02 0.13 0.09 0.02 0.01 0.01 0.03 0.03 0.00 0.00 0.00 0.00 0.01 0.02 0.10 0.27 0.13 0.08 0.01 0.11 0.08 0.03 0.12 0.01 0.01 0.03 0.02 0.00 0.01 0.01 0.01 0.02 0.02 0.02
0.02 0.01 0.00 0.02 0.13 0.09 0.01 0.00 0.01 0.02 0.01 0.00 0.00 0.00 0.00 0.01 0.01 0.01 0.04 0.26 0.33 0.21 0.01 0.18 0.28 0.07 0.13 0.06 0.00 0.00 0.01 0.01 0.01 0.02 0.02 0.01 0.01 0.01
0.02 0.01 0.02 0.10 0.04 0.00 0.00 0.01 0.01 0.01 0.00 0.00 0.01 0.01 0.01 0.01 0.01 0.01 0.02 0.05 0.10 0.24 0.09 0.15 0.38 0.16 0.20 0.11 0.02 0.00 0.00 0.01 0.14 0.18 0.19 0.16 0.07 0.07
0.01 0.05 0.08 0.01 0.00 0.00 0.00 0.00 0.00 0.00 0.02 0.06 0.04 0.02 0.02 0.02 0.03 0.03 0.02 0.01 0.03 0.03 0.07 0.14 0.28 0.21 0.19 0.11 0.03 0.00 0.04 0.07 0.30 0.57 0.62 0.51 0.15 0.04
0.06 0.09 0.01 0.00 0.00 0.00 0.00 0.00 0.00 0.01 0.06 0.10 0.08 0.04 0.02 0.03 0.05 0.07 0.13 0.05 0.11 0.04 0.04 0.10 0.14 0.13 0.07 0.02 0.04 0.04 0.10 0.25 0.34 0.46 0.52 0.55 0.41 0.14
0.03 0.00 0.00 0.00 0.00 0.00 0.00 0.00 0.00 0.01 0.06 0.06 0.09 0.08 0.04 0.04 0.04 0.06 0.15 0.16 0.20 0.15 0.10 0.06 0.05 0.06 0.05 0.07 0.08 0.10 0.16 0.25 0.42 0.43 0.35 0.47 0.61 0.43
0.00 0.00 0.00 0.00 0.00 0.00 0.00 0.01 0.01 0.03 0.06 0.08 0.07 0.08 0.12 0.11 0.10 0.07 0.14 0.17 0.18 0.12 0.13 0.11 0.07 0.04 0.05 0.09 0.14 0.20 0.22 0.34 0.48 0.48 0.45 0.39 0.51 0.57
0.00 0.00 0.01 0.01 0.01 0.01 0.01 0.04 0.05 0.04 0.08 0.09 0.11 0.13 0.12 0.08 0.09 0.11 0.11 0.12 0.08 0.09 0.11 0.09 0.10 0.12 0.12 0.11 0.11 0.36 0.34 0.39 0.41 0.35 0.38 0.34 0.36 0.59
0.01 0.01 0.01 0.01 0.01 0.03 0.05 0.08 0.08 0.04 0.05 0.08 0.09 0.07 0.09 0.10 0.09 0.09 0.09 0.10 0.09 0.08 0.05 0.03 0.06 0.16 0.20 0.19 0.17 0.48 0.43 0.37 0.26 0.29 0.33 0.26 0.46 0.56
0.01 0.01 0.01 0.01 0.03 0.05 0.07 0.07 0.08 0.09 0.10 0.09 0.06 0.07 0.06 0.10 0.08 0.07 0.08 0.07 0.09 0.07 0.04 0.04 0.06 0.13 0.19 0.13 0.18 0.27 0.52 0.47 0.22 0.18 0.26 0.18 0.26 0.22
0.01 0.01 0.01 0.01 0.05 0.08 0.08 0.07 0.07 0.04 0.04 0.04 0.04 0.05 0.06 0.11 0.11 0.09 0.08 0.09 0.08 0.09 0.05 0.02 0.04 0.07 0.07 0.09 0.15 0.20 0.29 0.33 0.26 0.21 0.21 0.13 0.11 0.20
0.01 0.01 0.01 0.03 0.07 0.07 0.06 0.05 0.04 0.03 0.03 0.07 0.05 0.06 0.09 0.09 0.07 0.07 0.06 0.08 0.09 0.07 0.06 0.04 0.03 0.03 0.04 0.07 0.07 0.12 0.12 0.15 0.12 0.11 0.35 0.25 0.22 0.23